• In Netherlands
  • List of Countries
  • For 7 days
  • Water Temperature
  • Satellite Maps
  • Weather Map
  • Weather Widgets
  • user-avatar
    Login

    Hourly Weather Ashtarak

    Today, 23 March, Thursday

    Time Temperature Precipitation Wind Pressure Humidity
    00:00 -4°C° 0 mm 1 mps 652 mmHg 84%
    01:00 -6°C° 0 mm 1 mps 652 mmHg 85%
    02:00 -6°C° 0 mm 0 mps 652 mmHg 85%
    03:00 -6°C° 0 mm 1 mps 653 mmHg 84%
    04:00 -7°C° 0 mm 1 mps 653 mmHg 85%
    05:00 -8°C° 0 mm 0 mps 652 mmHg 85%
    06:00 -8°C° 0 mm 0 mps 652 mmHg 85%
    07:00 -5°C° 0 mm 0 mps 654 mmHg 79%
    08:00 -1°C° 0 mm 0 mps 655 mmHg 74%
    09:00 +3°C° 0 mm 0 mps 656 mmHg 68%
    10:00 +4°C° 0 mm 0 mps 656 mmHg 66%
    11:00 +5°C° 0 mm 0 mps 656 mmHg 65%
    12:00 +7°C° 0 mm 1 mps 656 mmHg 63%
    13:00 +8°C° 0 mm 1 mps 655 mmHg 63%
    14:00 +8°C° 0 mm 1 mps 655 mmHg 63%
    15:00 +8°C° 0 mm 1 mps 655 mmHg 63%
    16:00 +6°C° 0 mm 1 mps 655 mmHg 67%
    17:00 +5°C° 0 mm 1 mps 655 mmHg 71%
    18:00 +3°C° 0 mm 1 mps 654 mmHg 75%
    19:00 +2°C° 0 mm 1 mps 655 mmHg 77%
    20:00 +1°C° 0 mm 1 mps 655 mmHg 78%
    21:00 +1°C° 0 mm 1 mps 656 mmHg 80%
    22:00 0°C° 0 mm 1 mps 656 mmHg 81%
    23:00 0°C° 0 mm 1 mps 656 mmHg 82%

    Tomorrow, 24 March, Friday

    Time Temperature Precipitation Wind Pressure Humidity
    00:00 0°C° 0 mm 1 mps 657 mmHg 83%
    01:00 -1°C° 0 mm 1 mps 657 mmHg 84%
    02:00 -1°C° 0 mm 1 mps 657 mmHg 84%
    03:00 -2°C° 0 mm 1 mps 657 mmHg 85%
    04:00 -2°C° 0 mm 1 mps 657 mmHg 85%
    05:00 -2°C° 0 mm 1 mps 657 mmHg 85%
    06:00 -3°C° 0 mm 1 mps 657 mmHg 85%
    07:00 0°C° 0 mm 1 mps 658 mmHg 79%
    08:00 +3°C° 0 mm 1 mps 658 mmHg 72%
    09:00 +5°C° 0 mm 1 mps 659 mmHg 66%
    10:00 +7°C° 0 mm 1 mps 659 mmHg 64%
    11:00 +8°C° 0 mm 1 mps 659 mmHg 62%
    12:00 +9°C° 0 mm 1 mps 659 mmHg 59%
    13:00 +9°C° 0 mm 1 mps 659 mmHg 59%
    14:00 +10°C° 0 mm 1 mps 658 mmHg 59%
    15:00 +10°C° 0 mm 1 mps 658 mmHg 58%
    16:00 +8°C° 0 mm 1 mps 658 mmHg 63%
    17:00 +6°C° 0 mm 1 mps 657 mmHg 69%
    18:00 +4°C° 0 mm 1 mps 657 mmHg 74%
    19:00 +3°C° 0 mm 1 mps 657 mmHg 76%
    20:00 +3°C° 0 mm 1 mps 658 mmHg 78%
    21:00 +2°C° 0 mm 1 mps 658 mmHg 79%
    22:00 +1°C° 0 mm 1 mps 658 mmHg 80%
    23:00 +1°C° 0 mm 1 mps 658 mmHg 81%

    Day after tomorrow, 25 March, Saturday

    Time Temperature Precipitation Wind Pressure Humidity
    00:00 0°C° 0 mm 1 mps 658 mmHg 81%
    01:00 0°C° 0 mm 1 mps 658 mmHg 82%
    02:00 -1°C° 0 mm 1 mps 657 mmHg 83%
    03:00 -1°C° 0 mm 1 mps 657 mmHg 83%
    04:00 -2°C° 0 mm 1 mps 657 mmHg 83%
    05:00 -2°C° 0 mm 1 mps 656 mmHg 83%
    06:00 -2°C° 0 mm 1 mps 656 mmHg 83%
    07:00 +1°C° 0 mm 1 mps 657 mmHg 76%
    08:00 +4°C° 0 mm 1 mps 658 mmHg 69%
    09:00 +7°C° 0 mm 1 mps 658 mmHg 63%
    10:00 +8°C° 0 mm 1 mps 658 mmHg 61%
    11:00 +9°C° 0 mm 1 mps 658 mmHg 59%
    12:00 +10°C° 0 mm 1 mps 657 mmHg 57%
    13:00 +10°C° 0 mm 1 mps 657 mmHg 57%
    14:00 +11°C° 0 mm 1 mps 656 mmHg 57%
    15:00 +11°C° 0 mm 1 mps 656 mmHg 57%
    16:00 +9°C° 0 mm 1 mps 655 mmHg 62%
    17:00 +7°C° 0 mm 1 mps 655 mmHg 66%
    18:00 +5°C° 0 mm 1 mps 654 mmHg 71%
    19:00 +3°C° 0 mm 1 mps 654 mmHg 73%
    20:00 +1°C° 0 mm 0 mps 654 mmHg 75%
    21:00 0°C° 0 mm 0 mps 654 mmHg 77%
    22:00 0°C° 0 mm 0 mps 654 mmHg 77%
    23:00 0°C° 0 mm 0 mps 654 mmHg 77%

    26 March, Sunday

    Time Temperature Precipitation Wind Pressure Humidity
    00:00 -1°C° 0 mm 0 mps 654 mmHg 77%
    01:00 0°C° 0 mm 0 mps 654 mmHg 76%
    02:00 0°C° 0 mm 0 mps 654 mmHg 75%
    03:00 0°C° 0 mm 0 mps 654 mmHg 73%
    04:00 0°C° 0 mm 0 mps 654 mmHg 73%
    05:00 -1°C° 0 mm 0 mps 654 mmHg 73%
    06:00 -1°C° 0 mm 0 mps 654 mmHg 73%
    07:00 +3°C° 0 mm 1 mps 655 mmHg 67%
    08:00 +5°C° 0 mm 1 mps 655 mmHg 62%
    09:00 +8°C° 0 mm 1 mps 656 mmHg 57%
    10:00 +9°C° 0 mm 1 mps 656 mmHg 55%
    11:00 +10°C° 0 mm 1 mps 656 mmHg 53%
    12:00 +12°C° 0 mm 1 mps 656 mmHg 52%
    13:00 +12°C° 0 mm 1 mps 656 mmHg 52%
    14:00 +12°C° 0 mm 1 mps 656 mmHg 52%
    15:00 +12°C° 0 mm 1 mps 656 mmHg 52%
    16:00 +10°C° 0 mm 1 mps 655 mmHg 56%
    17:00 +9°C° 0 mm 1 mps 655 mmHg 60%
    18:00 +7°C° 0 mm 1 mps 655 mmHg 64%
    19:00 +6°C° 0 mm 1 mps 655 mmHg 65%
    20:00 +4°C° 0 mm 1 mps 655 mmHg 66%
    21:00 +3°C° 0 mm 1 mps 656 mmHg 66%
    22:00 +3°C° 0 mm 1 mps 656 mmHg 66%
    23:00 +3°C° 0 mm 1 mps 656 mmHg 66%

    27 March, Monday

    Time Temperature Precipitation Wind Pressure Humidity
    00:00 +2°C° 0 mm 1 mps 656 mmHg 65%
    01:00 +2°C° 0 mm 1 mps 656 mmHg 66%
    02:00 +2°C° 0 mm 1 mps 655 mmHg 67%
    03:00 +2°C° 0 mm 1 mps 655 mmHg 67%
    04:00 +1°C° 0 mm 1 mps 655 mmHg 68%
    05:00 +1°C° 0 mm 1 mps 655 mmHg 69%
    06:00 +1°C° 0 mm 1 mps 655 mmHg 69%
    07:00 +4°C° 0 mm 1 mps 656 mmHg 63%
    08:00 +6°C° 0 mm 1 mps 657 mmHg 56%
    09:00 +9°C° 0 mm 1 mps 657 mmHg 50%
    10:00 +10°C° 0 mm 1 mps 657 mmHg 49%
    11:00 +10°C° 0 mm 2 mps 657 mmHg 48%
    12:00 +12°C° 0 mm 2 mps 657 mmHg 48%
    13:00 +13°C° 0 mm 2 mps 657 mmHg 48%
    14:00 +13°C° 0 mm 2 mps 656 mmHg 48%
    15:00 +13°C° 0 mm 2 mps 656 mmHg 48%
    16:00 +10°C° 0 mm 2 mps 656 mmHg 52%
    17:00 +10°C° 0 mm 1 mps 655 mmHg 56%
    18:00 +8°C° 0 mm 1 mps 655 mmHg 60%
    19:00 +7°C° 0 mm 1 mps 655 mmHg 60%
    20:00 +5°C° 0 mm 1 mps 655 mmHg 60%
    21:00 +4°C° 0 mm 1 mps 655 mmHg 60%
    22:00 +4°C° 0 mm 1 mps 655 mmHg 61%
    23:00 +4°C° 0 mm 1 mps 655 mmHg 62%

    28 March, Tuesday

    Time Temperature Precipitation Wind Pressure Humidity
    00:00 +3°C° 0 mm 1 mps 655 mmHg 62%
    01:00 +3°C° 0 mm 1 mps 655 mmHg 63%
    02:00 +3°C° 0 mm 1 mps 655 mmHg 64%
    03:00 +3°C° 0 mm 1 mps 655 mmHg 65%
    04:00 +3°C° 0 mm 1 mps 655 mmHg 65%
    05:00 +3°C° 0 mm 1 mps 655 mmHg 66%
    06:00 +3°C° 0 mm 1 mps 655 mmHg 67%
    07:00 +5°C° 0 mm 1 mps 656 mmHg 63%
    08:00 +7°C° 0 mm 2 mps 656 mmHg 59%
    09:00 +9°C° 0 mm 2 mps 656 mmHg 55%
    10:00 +10°C° 0 mm 2 mps 656 mmHg 54%
    11:00 +12°C° 0 mm 2 mps 656 mmHg 53%
    12:00 +12°C° 0 mm 3 mps 656 mmHg 53%
    13:00 +13°C° 0.2 mm 2 mps 655 mmHg 53%
    14:00 +13°C° 0.2 mm 2 mps 655 mmHg 53%
    15:00 +13°C° 0.2 mm 2 mps 655 mmHg 54%
    16:00 +12°C° 0.1 mm 2 mps 654 mmHg 58%
    17:00 +9°C° 0.1 mm 2 mps 654 mmHg 63%
    18:00 +8°C° 0.1 mm 2 mps 654 mmHg 67%
    19:00 +7°C° 0.1 mm 2 mps 654 mmHg 69%
    20:00 +7°C° 0.1 mm 1 mps 654 mmHg 70%
    21:00 +7°C° 0.1 mm 1 mps 654 mmHg 71%
    22:00 +6°C° 0 mm 1 mps 654 mmHg 72%
    23:00 +6°C° 0 mm 1 mps 654 mmHg 73%
    Show more